Time,TemperatureF,DewpointF,PressureIn,WindDirection,WindDirectionDegrees,WindSpeedMPH,WindSpeedGustMPH,Humidity,HourlyPrecipIn,Conditions,Clouds,dailyrainin,SolarRadiationWatts/m^2,SoftwareType,DateUTC
2013-03-17 00:02:00,33.0,31.0,-100.00,East,86,6.0,18.0,93,0.01,,,0.01,0.000000,,2013-03-17 06:02:00,
2013-03-17 00:12:00,33.0,31.0,-100.00,East,86,6.0,18.0,93,0.01,,,0.01,0.000000,,2013-03-17 06:12:00,
2013-03-17 00:22:00,33.0,31.0,-100.00,East,86,6.0,18.0,93,0.01,,,0.01,0.000000,,2013-03-17 06:22:00,
2013-03-17 00:32:00,33.0,31.0,-100.00,East,86,6.0,18.0,93,0.01,,,0.01,0.000000,,2013-03-17 06:32:00,
2013-03-17 01:02:00,34.0,24.0,-100.00,West,271,14.0,30.0,66,0.00,,,0.01,0.000000,,2013-03-17 07:02:00,
2013-03-17 01:12:00,34.0,24.0,-100.00,West,271,14.0,30.0,66,0.00,,,0.01,0.000000,,2013-03-17 07:12:00,
2013-03-17 01:22:00,34.0,24.0,-100.00,West,271,14.0,30.0,66,0.00,,,0.01,0.000000,,2013-03-17 07:22:00,
2013-03-17 01:32:00,34.0,24.0,-100.00,West,271,14.0,30.0,66,0.00,,,0.01,0.000000,,2013-03-17 07:32:00,
2013-03-17 02:02:00,34.0,20.0,-100.00,West,261,14.0,29.0,55,0.00,,,0.01,0.000000,,2013-03-17 08:02:00,
2013-03-17 02:12:00,34.0,20.0,-100.00,West,261,14.0,29.0,55,0.00,,,0.01,0.000000,,2013-03-17 08:12:00,
2013-03-17 02:22:00,34.0,20.0,-100.00,West,261,14.0,29.0,55,0.00,,,0.01,0.000000,,2013-03-17 08:22:00,
2013-03-17 02:32:00,34.0,20.0,-100.00,West,261,14.0,29.0,55,0.00,,,0.01,0.000000,,2013-03-17 08:32:00,
2013-03-17 03:02:00,33.0,23.0,-100.00,SSW,201,10.0,23.0,65,0.00,,,0.01,0.000000,,2013-03-17 09:02:00,
2013-03-17 03:12:00,33.0,23.0,-100.00,SSW,201,10.0,23.0,65,0.00,,,0.01,0.000000,,2013-03-17 09:12:00,
2013-03-17 03:22:00,33.0,23.0,-100.00,SSW,201,10.0,23.0,65,0.00,,,0.01,0.000000,,2013-03-17 09:22:00,
2013-03-17 03:32:00,33.0,23.0,-100.00,SSW,201,10.0,23.0,65,0.00,,,0.01,0.000000,,2013-03-17 09:32:00,
2013-03-17 04:03:00,28.0,22.0,-100.00,SW,219,8.0,48.0,79,0.00,,,0.01,0.000000,,2013-03-17 10:03:00,
2013-03-17 04:12:00,28.0,22.0,-100.00,SW,219,8.0,48.0,79,0.00,,,0.01,0.000000,,2013-03-17 10:12:00,
2013-03-17 04:23:00,28.0,22.0,-100.00,SW,219,8.0,48.0,79,0.00,,,0.01,0.000000,,2013-03-17 10:23:00,
2013-03-17 04:33:00,28.0,22.0,-100.00,SW,219,8.0,48.0,79,0.00,,,0.01,0.000000,,2013-03-17 10:33:00,
2013-03-17 05:02:00,28.0,13.0,-100.00,SW,236,6.0,23.0,52,0.00,,,0.01,0.000000,,2013-03-17 11:02:00,
2013-03-17 05:12:00,28.0,13.0,-100.00,SW,236,6.0,23.0,52,0.00,,,0.01,0.000000,,2013-03-17 11:12:00,
2013-03-17 05:22:00,28.0,13.0,-100.00,SW,236,6.0,23.0,52,0.00,,,0.01,0.000000,,2013-03-17 11:22:00,
2013-03-17 05:32:00,28.0,13.0,-100.00,SW,236,6.0,23.0,52,0.00,,,0.01,0.000000,,2013-03-17 11:32:00,
2013-03-17 06:02:00,24.0,20.0,-100.00,SE,124,7.0,19.0,84,0.00,,,0.01,0.000000,,2013-03-17 12:02:00,
2013-03-17 06:12:00,24.0,20.0,-100.00,SE,124,7.0,19.0,84,0.00,,,0.01,0.000000,,2013-03-17 12:12:00,
2013-03-17 06:22:00,24.0,20.0,-100.00,SE,124,7.0,19.0,84,0.00,,,0.01,0.000000,,2013-03-17 12:22:00,
2013-03-17 06:32:00,24.0,20.0,-100.00,SE,124,7.0,19.0,84,0.00,,,0.01,0.000000,,2013-03-17 12:32:00,
2013-03-17 07:02:00,24.0,16.0,-100.00,East,95,6.0,15.0,70,0.00,,,0.01,0.000000,,2013-03-17 13:02:00,
2013-03-17 07:12:00,24.0,16.0,-100.00,East,95,6.0,15.0,70,0.00,,,0.01,0.000000,,2013-03-17 13:12:00,
2013-03-17 07:22:00,24.0,16.0,-100.00,East,95,6.0,15.0,70,0.00,,,0.01,0.000000,,2013-03-17 13:22:00,
2013-03-17 07:32:00,24.0,16.0,-100.00,East,95,6.0,15.0,70,0.00,,,0.01,0.000000,,2013-03-17 13:32:00,
2013-03-17 08:02:00,22.0,20.0,-100.00,East,94,9.0,13.0,91,0.00,,,0.01,0.000000,,2013-03-17 14:02:00,
2013-03-17 08:12:00,22.0,20.0,-100.00,East,94,9.0,13.0,91,0.00,,,0.01,0.000000,,2013-03-17 14:12:00,
2013-03-17 08:22:00,22.0,20.0,-100.00,East,94,9.0,13.0,91,0.00,,,0.01,0.000000,,2013-03-17 14:22:00,
2013-03-17 08:32:00,22.0,20.0,-100.00,East,94,9.0,13.0,91,0.00,,,0.01,0.000000,,2013-03-17 14:32:00,
2013-03-17 09:02:00,25.0,11.0,-100.00,West,280,6.0,15.0,55,0.00,,,0.01,21.000000,,2013-03-17 15:02:00,
2013-03-17 09:12:00,25.0,11.0,-100.00,West,280,6.0,15.0,55,0.00,,,0.01,21.000000,,2013-03-17 15:12:00,
2013-03-17 09:22:00,25.0,11.0,-100.00,West,280,6.0,15.0,55,0.00,,,0.01,21.000000,,2013-03-17 15:22:00,
2013-03-17 09:32:00,25.0,11.0,-100.00,West,280,6.0,15.0,55,0.00,,,0.01,21.000000,,2013-03-17 15:32:00,
2013-03-17 10:03:00,25.0,9.0,-100.00,WNW,300,7.0,15.0,51,0.00,,,0.01,82.000000,,2013-03-17 16:03:00,
2013-03-17 10:12:00,25.0,9.0,-100.00,WNW,300,7.0,15.0,51,0.00,,,0.01,82.000000,,2013-03-17 16:12:00,
2013-03-17 10:22:00,25.0,9.0,-100.00,WNW,300,7.0,15.0,51,0.00,,,0.01,82.000000,,2013-03-17 16:22:00,
2013-03-17 10:32:00,25.0,9.0,-100.00,WNW,300,7.0,15.0,51,0.00,,,0.01,82.000000,,2013-03-17 16:32:00,
2013-03-17 11:02:00,25.0,11.0,-100.00,SW,230,6.0,16.0,55,0.00,,,0.01,151.000000,,2013-03-17 17:02:00,
2013-03-17 11:12:00,25.0,11.0,-100.00,SW,230,6.0,16.0,55,0.00,,,0.01,151.000000,,2013-03-17 17:12:00,
2013-03-17 11:22:00,25.0,11.0,-100.00,SW,230,6.0,16.0,55,0.00,,,0.01,151.000000,,2013-03-17 17:22:00,
2013-03-17 11:32:00,25.0,11.0,-100.00,SW,230,6.0,16.0,55,0.00,,,0.01,151.000000,,2013-03-17 17:32:00,
2013-03-17 12:02:00,29.0,10.0,-100.00,SSW,206,3.0,19.0,44,0.00,,,0.01,241.000000,,2013-03-17 18:02:00,
2013-03-17 12:12:00,29.0,10.0,-100.00,SSW,206,3.0,19.0,44,0.00,,,0.01,241.000000,,2013-03-17 18:12:00,
2013-03-17 12:22:00,29.0,10.0,-100.00,SSW,206,3.0,19.0,44,0.00,,,0.01,241.000000,,2013-03-17 18:22:00,
2013-03-17 12:32:00,29.0,10.0,-100.00,SSW,206,3.0,19.0,44,0.00,,,0.01,241.000000,,2013-03-17 18:32:00,
2013-03-17 13:02:00,30.0,11.0,-100.00,NNW,330,2.0,21.0,45,0.00,,,0.01,221.000000,,2013-03-17 19:02:00,
2013-03-17 13:12:00,30.0,11.0,-100.00,NNW,330,2.0,21.0,45,0.00,,,0.01,221.000000,,2013-03-17 19:12:00,
2013-03-17 13:22:00,30.0,11.0,-100.00,NNW,330,2.0,21.0,45,0.00,,,0.01,221.000000,,2013-03-17 19:22:00,
2013-03-17 13:32:00,30.0,11.0,-100.00,NNW,330,2.0,21.0,45,0.00,,,0.01,221.000000,,2013-03-17 19:32:00,
2013-03-17 14:02:00,31.0,10.0,-100.00,West,275,8.0,19.0,40,0.02,,,0.03,501.000000,,2013-03-17 20:02:00,
2013-03-17 14:12:00,31.0,10.0,-100.00,West,275,8.0,19.0,40,0.02,,,0.03,501.000000,,2013-03-17 20:12:00,
2013-03-17 14:22:00,31.0,10.0,-100.00,West,275,8.0,19.0,40,0.02,,,0.03,501.000000,,2013-03-17 20:22:00,
2013-03-17 14:32:00,31.0,10.0,-100.00,West,275,8.0,19.0,40,0.02,,,0.03,501.000000,,2013-03-17 20:32:00,
2013-03-17 15:02:00,32.0,10.0,-100.00,WSW,252,12.0,21.0,40,0.00,,,0.03,630.000000,,2013-03-17 21:02:00,
2013-03-17 15:12:00,32.0,10.0,-100.00,WSW,252,12.0,21.0,40,0.00,,,0.03,630.000000,,2013-03-17 21:12:00,
2013-03-17 15:22:00,32.0,10.0,-100.00,WSW,252,12.0,21.0,40,0.00,,,0.03,630.000000,,2013-03-17 21:22:00,
2013-03-17 15:32:00,32.0,10.0,-100.00,WSW,252,12.0,21.0,40,0.00,,,0.03,630.000000,,2013-03-17 21:32:00,
2013-03-17 16:03:00,31.0,15.0,-100.00,West,271,7.0,20.0,51,0.00,,,0.03,554.000000,,2013-03-17 22:03:00,
2013-03-17 16:12:00,31.0,15.0,-100.00,West,271,7.0,20.0,51,0.00,,,0.03,554.000000,,2013-03-17 22:12:00,
2013-03-17 16:23:00,31.0,15.0,-100.00,West,271,7.0,20.0,51,0.00,,,0.03,554.000000,,2013-03-17 22:23:00,
2013-03-17 16:33:00,31.0,15.0,-100.00,West,271,7.0,20.0,51,0.00,,,0.03,554.000000,,2013-03-17 22:33:00,
2013-03-17 17:02:00,31.0,17.0,-100.00,South,189,5.0,19.0,55,0.00,,,0.03,307.000000,,2013-03-17 23:02:00,
2013-03-17 17:12:00,31.0,17.0,-100.00,South,189,5.0,19.0,55,0.00,,,0.03,307.000000,,2013-03-17 23:12:00,
2013-03-17 17:22:00,31.0,17.0,-100.00,South,189,5.0,19.0,55,0.00,,,0.03,307.000000,,2013-03-17 23:22:00,
2013-03-17 17:32:00,31.0,17.0,-100.00,South,189,5.0,19.0,55,0.00,,,0.03,307.000000,,2013-03-17 23:32:00,
2013-03-17 18:03:00,27.0,19.0,-100.00,ESE,107,5.0,10.0,72,0.00,,,0.03,175.000000,,2013-03-18 00:03:00,
2013-03-17 18:12:00,27.0,19.0,-100.00,ESE,107,5.0,10.0,72,0.00,,,0.03,175.000000,,2013-03-18 00:12:00,
2013-03-17 18:22:00,27.0,19.0,-100.00,ESE,107,5.0,10.0,72,0.00,,,0.03,175.000000,,2013-03-18 00:22:00,
2013-03-17 18:32:00,27.0,19.0,-100.00,ESE,107,5.0,10.0,72,0.00,,,0.03,175.000000,,2013-03-18 00:32:00,
2013-03-17 19:01:00,26.0,21.0,-100.00,East,93,5.0,9.0,81,0.00,,,0.03,85.000000,,2013-03-18 01:01:00,
2013-03-17 20:02:00,26.0,21.0,-100.00,SW,229,2.0,9.0,82,0.00,,,0.03,34.000000,,2013-03-18 02:02:00,
2013-03-17 21:02:00,27.0,16.0,-100.00,SW,230,1.0,6.0,62,0.00,,,0.03,1.000000,,2013-03-18 03:02:00,
2013-03-17 21:11:00,27.0,16.0,-100.00,SW,230,1.0,6.0,62,0.00,,,0.03,1.000000,,2013-03-18 03:11:00,
2013-03-17 21:22:00,27.0,16.0,-100.00,SW,230,1.0,6.0,62,0.00,,,0.03,1.000000,,2013-03-18 03:22:00,
2013-03-17 21:32:00,27.0,16.0,-100.00,SW,230,1.0,6.0,62,0.00,,,0.03,1.000000,,2013-03-18 03:32:00,
2013-03-17 22:03:00,26.0,14.0,-100.00,SSE,161,2.0,11.0,59,0.00,,,0.03,0.000000,,2013-03-18 04:03:00,
2013-03-17 22:12:00,26.0,14.0,-100.00,SSE,161,2.0,11.0,59,0.00,,,0.03,0.000000,,2013-03-18 04:12:00,
2013-03-17 22:22:00,26.0,14.0,-100.00,SSE,161,2.0,11.0,59,0.00,,,0.03,0.000000,,2013-03-18 04:22:00,
2013-03-17 22:33:00,26.0,14.0,-100.00,SSE,161,2.0,11.0,59,0.00,,,0.03,0.000000,,2013-03-18 04:33:00,
2013-03-17 23:02:00,26.0,13.0,-100.00,ESE,112,2.0,5.0,58,0.00,,,0.03,0.000000,,2013-03-18 05:02:00,
2013-03-17 23:12:00,26.0,13.0,-100.00,ESE,112,2.0,5.0,58,0.00,,,0.03,0.000000,,2013-03-18 05:12:00,
2013-03-17 23:22:00,26.0,13.0,-100.00,ESE,112,2.0,5.0,58,0.00,,,0.03,0.000000,,2013-03-18 05:22:00,
2013-03-17 23:32:00,26.0,13.0,-100.00,ESE,112,2.0,5.0,58,0.00,,,0.03,0.000000,,2013-03-18 05:32:00,